• în Republica Moldova
  • Lista ţărilor
  • Pe 7 zile
  • Temperatura apei
  • Hartă satelitară
  • Meteo pe hartă
  • Widget-uri
  • user-avatar
    Intrare

    Meteo pe oră la Linz

    Astăzi, 27 Mai, Sâmbătă

    Timp Temperatura Precipitaţii Vânt Presiune Umiditate
    00:00 +11°C° 0 mm 1 m/s 736 mmHg 94%
    01:00 +11°C° 0 mm 1 m/s 736 mmHg 93%
    02:00 +11°C° 0 mm 1 m/s 736 mmHg 94%
    03:00 +11°C° 0 mm 1 m/s 736 mmHg 94%
    04:00 +10°C° 0 mm 1 m/s 736 mmHg 94%
    05:00 +13°C° 0 mm 1 m/s 736 mmHg 90%
    06:00 +15°C° 0 mm 1 m/s 737 mmHg 86%
    07:00 +19°C° 0 mm 1 m/s 737 mmHg 83%
    08:00 +20°C° 0 mm 1 m/s 737 mmHg 75%
    09:00 +21°C° 0 mm 2 m/s 737 mmHg 68%
    10:00 +23°C° 0 mm 2 m/s 737 mmHg 60%
    11:00 +24°C° 0 mm 2 m/s 737 mmHg 58%
    12:00 +24°C° 0 mm 3 m/s 737 mmHg 56%
    13:00 +25°C° 0 mm 3 m/s 737 mmHg 54%
    14:00 +25°C° 0 mm 3 m/s 737 mmHg 55%
    15:00 +25°C° 0 mm 3 m/s 737 mmHg 56%
    16:00 +25°C° 0 mm 3 m/s 737 mmHg 57%
    17:00 +22°C° 0 mm 3 m/s 737 mmHg 65%
    18:00 +21°C° 0 mm 3 m/s 737 mmHg 72%
    19:00 +19°C° 0 mm 2 m/s 737 mmHg 80%
    20:00 +17°C° 0 mm 2 m/s 737 mmHg 84%
    21:00 +16°C° 0 mm 2 m/s 738 mmHg 88%
    22:00 +14°C° 0 mm 2 m/s 738 mmHg 91%
    23:00 +14°C° 0 mm 2 m/s 738 mmHg 91%

    Mâine, 28 Mai, Duminică

    Timp Temperatura Precipitaţii Vânt Presiune Umiditate
    00:00 +13°C° 0 mm 2 m/s 738 mmHg 91%
    01:00 +13°C° 0 mm 2 m/s 738 mmHg 91%
    02:00 +12°C° 0 mm 2 m/s 738 mmHg 91%
    03:00 +12°C° 0 mm 2 m/s 738 mmHg 91%
    04:00 +10°C° 0 mm 2 m/s 738 mmHg 92%
    05:00 +13°C° 0 mm 2 m/s 738 mmHg 86%
    06:00 +16°C° 0 mm 1 m/s 738 mmHg 81%
    07:00 +19°C° 0 mm 1 m/s 738 mmHg 75%
    08:00 +20°C° 0 mm 1 m/s 738 mmHg 69%
    09:00 +21°C° 0 mm 2 m/s 738 mmHg 64%
    10:00 +24°C° 0 mm 2 m/s 738 mmHg 58%
    11:00 +25°C° 0 mm 2 m/s 738 mmHg 56%
    12:00 +26°C° 0 mm 3 m/s 738 mmHg 54%
    13:00 +27°C° 0 mm 3 m/s 738 mmHg 51%
    14:00 +27°C° 0 mm 3 m/s 737 mmHg 53%
    15:00 +27°C° 0 mm 3 m/s 737 mmHg 54%
    16:00 +27°C° 0 mm 3 m/s 737 mmHg 56%
    17:00 +25°C° 0 mm 3 m/s 737 mmHg 64%
    18:00 +24°C° 0 mm 2 m/s 736 mmHg 72%
    19:00 +21°C° 0 mm 2 m/s 736 mmHg 81%
    20:00 +19°C° 0 mm 2 m/s 736 mmHg 84%
    21:00 +16°C° 0 mm 1 m/s 736 mmHg 87%
    22:00 +14°C° 0 mm 1 m/s 736 mmHg 90%
    23:00 +14°C° 0 mm 1 m/s 736 mmHg 90%

    Poimâine, 29 Mai, Luni

    Timp Temperatura Precipitaţii Vânt Presiune Umiditate
    00:00 +14°C° 0 mm 1 m/s 736 mmHg 90%
    01:00 +13°C° 0 mm 1 m/s 736 mmHg 90%
    02:00 +13°C° 0 mm 1 m/s 736 mmHg 90%
    03:00 +13°C° 0 mm 1 m/s 735 mmHg 90%
    04:00 +12°C° 0 mm 1 m/s 735 mmHg 90%
    05:00 +15°C° 0 mm 1 m/s 735 mmHg 84%
    06:00 +19°C° 0 mm 1 m/s 735 mmHg 78%
    07:00 +19°C° 0 mm 0 m/s 735 mmHg 71%
    08:00 +21°C° 0 mm 0 m/s 735 mmHg 66%
    09:00 +25°C° 0 mm 1 m/s 735 mmHg 61%
    10:00 +27°C° 0 mm 1 m/s 735 mmHg 56%
    11:00 +27°C° 0 mm 1 m/s 735 mmHg 53%
    12:00 +28°C° 0 mm 1 m/s 735 mmHg 50%
    13:00 +29°C° 0 mm 1 m/s 734 mmHg 47%
    14:00 +29°C° 0 mm 1 m/s 734 mmHg 48%
    15:00 +29°C° 0 mm 1 m/s 734 mmHg 49%
    16:00 +28°C° 0 mm 1 m/s 734 mmHg 50%
    17:00 +27°C° 0 mm 1 m/s 733 mmHg 59%
    18:00 +25°C° 0 mm 1 m/s 733 mmHg 68%
    19:00 +21°C° 0 mm 0 m/s 733 mmHg 78%
    20:00 +18°C° 0 mm 0 m/s 733 mmHg 81%
    21:00 +16°C° 0 mm 0 m/s 733 mmHg 85%
    22:00 +13°C° 0 mm 0 m/s 733 mmHg 88%
    23:00 +14°C° 0 mm 0 m/s 733 mmHg 88%

    30 Mai, Marţi

    Timp Temperatura Precipitaţii Vânt Presiune Umiditate
    00:00 +15°C° 0 mm 1 m/s 733 mmHg 88%
    01:00 +15°C° 0 mm 1 m/s 733 mmHg 88%
    02:00 +15°C° 0 mm 1 m/s 733 mmHg 88%
    03:00 +15°C° 0 mm 1 m/s 733 mmHg 88%
    04:00 +15°C° 0 mm 1 m/s 733 mmHg 88%
    05:00 +16°C° 0 mm 0 m/s 733 mmHg 82%
    06:00 +19°C° 0 mm 0 m/s 733 mmHg 76%
    07:00 +21°C° 0 mm 0 m/s 734 mmHg 70%
    08:00 +23°C° 0 mm 0 m/s 734 mmHg 65%
    09:00 +26°C° 0 mm 1 m/s 734 mmHg 60%
    10:00 +28°C° 0 mm 1 m/s 734 mmHg 55%
    11:00 +28°C° 0,2 mm 1 m/s 734 mmHg 55%
    12:00 +29°C° 0,2 mm 1 m/s 734 mmHg 55%
    13:00 +29°C° 0,2 mm 1 m/s 733 mmHg 54%
    14:00 +29°C° 1,2 mm 1 m/s 733 mmHg 56%
    15:00 +29°C° 1,2 mm 1 m/s 733 mmHg 59%
    16:00 +29°C° 1,2 mm 1 m/s 733 mmHg 61%
    17:00 +27°C° 1,3 mm 1 m/s 733 mmHg 69%
    18:00 +26°C° 1,3 mm 1 m/s 733 mmHg 77%
    19:00 +24°C° 1,3 mm 1 m/s 733 mmHg 85%
    20:00 +23°C° 0,5 mm 1 m/s 734 mmHg 86%
    21:00 +22°C° 0,5 mm 1 m/s 734 mmHg 88%
    22:00 +20°C° 0,5 mm 1 m/s 734 mmHg 90%
    23:00 +20°C° 0,3 mm 1 m/s 734 mmHg 91%

    31 Mai, Miercuri

    Timp Temperatura Precipitaţii Vânt Presiune Umiditate
    00:00 +20°C° 0,3 mm 1 m/s 734 mmHg 92%
    01:00 +20°C° 0,3 mm 1 m/s 734 mmHg 93%
    02:00 +20°C° 0,6 mm 1 m/s 734 mmHg 94%
    03:00 +19°C° 0,6 mm 1 m/s 734 mmHg 95%
    04:00 +19°C° 0,6 mm 1 m/s 734 mmHg 96%
    05:00 +20°C° 0,2 mm 1 m/s 735 mmHg 94%
    06:00 +21°C° 0,2 mm 1 m/s 735 mmHg 92%
    07:00 +21°C° 0,2 mm 2 m/s 735 mmHg 90%
    08:00 +23°C° 0,2 mm 2 m/s 735 mmHg 87%
    09:00 +24°C° 0,2 mm 2 m/s 735 mmHg 83%
    10:00 +24°C° 0,2 mm 3 m/s 736 mmHg 80%
    11:00 +25°C° 0,3 mm 3 m/s 735 mmHg 77%
    12:00 +26°C° 0,3 mm 3 m/s 735 mmHg 75%
    13:00 +26°C° 0,3 mm 3 m/s 735 mmHg 72%
    14:00 +26°C° 0,4 mm 3 m/s 735 mmHg 73%
    15:00 +26°C° 0,4 mm 2 m/s 735 mmHg 74%
    16:00 +26°C° 0,4 mm 2 m/s 735 mmHg 75%
    17:00 +25°C° 0,3 mm 2 m/s 735 mmHg 80%
    18:00 +24°C° 0,3 mm 1 m/s 735 mmHg 85%
    19:00 +23°C° 0,3 mm 1 m/s 735 mmHg 90%
    20:00 +21°C° 0,2 mm 1 m/s 735 mmHg 92%
    21:00 +19°C° 0,2 mm 1 m/s 736 mmHg 94%
    22:00 +16°C° 0,2 mm 1 m/s 736 mmHg 95%
    23:00 +16°C° 0 mm 1 m/s 736 mmHg 96%

    1 Iunie, Joi

    Timp Temperatura Precipitaţii Vânt Presiune Umiditate
    00:00 +16°C° 0 mm 1 m/s 736 mmHg 96%
    01:00 +15°C° 0 mm 1 m/s 736 mmHg 97%
    02:00 +15°C° 0 mm 1 m/s 736 mmHg 96%
    03:00 +16°C° 0 mm 1 m/s 736 mmHg 96%
    04:00 +16°C° 0 mm 1 m/s 736 mmHg 96%
    05:00 +18°C° 0 mm 1 m/s 736 mmHg 93%
    06:00 +18°C° 0 mm 1 m/s 736 mmHg 91%
    07:00 +19°C° 0 mm 1 m/s 736 mmHg 88%
    08:00 +20°C° 0 mm 2 m/s 736 mmHg 82%
    09:00 +21°C° 0 mm 2 m/s 736 mmHg 75%
    10:00 +23°C° 0 mm 2 m/s 736 mmHg 69%
    11:00 +24°C° 0 mm 2 m/s 736 mmHg 66%
    12:00 +25°C° 0 mm 2 m/s 736 mmHg 64%
    13:00 +26°C° 0 mm 2 m/s 736 mmHg 61%
    14:00 +26°C° 0,1 mm 3 m/s 735 mmHg 63%
    15:00 +25°C° 0,1 mm 3 m/s 735 mmHg 64%
    16:00 +25°C° 0,1 mm 3 m/s 735 mmHg 65%
    17:00 +24°C° 0,1 mm 3 m/s 735 mmHg 71%
    18:00 +22°C° 0,1 mm 3 m/s 735 mmHg 76%
    19:00 +20°C° 0,1 mm 2 m/s 735 mmHg 82%
    20:00 +19°C° 0,1 mm 2 m/s 735 mmHg 83%
    21:00 +18°C° 0,1 mm 2 m/s 735 mmHg 85%
    22:00 +16°C° 0,1 mm 2 m/s 735 mmHg 86%
    23:00 +16°C° 0 mm 2 m/s 735 mmHg 88%
    Arată mai mult